owner,sensor,date,latitude,longitude,vertical_datum,mass_concentration_of_oxygen_in_sea_water,qcFlag 
DISL,ioos:station:DISL:DISL:1,2012-09-01T00:00:00Z,30.2513,-88.0778,6.698,6.92,1111122 
DISL,ioos:station:DISL:DISL:1,2012-09-01T00:30:00Z,30.2513,-88.0778,6.662,6.79,1111122 
DISL,ioos:station:DISL:DISL:1,2012-09-01T01:00:00Z,30.2513,-88.0778,6.632,6.8,1111122 
DISL,ioos:station:DISL:DISL:1,2012-09-01T01:30:00Z,30.2513,-88.0778,6.613,6.71,1111122 
DISL,ioos:station:DISL:DISL:1,2012-09-01T02:00:00Z,30.2513,-88.0778,6.578,6.61,1111122 
DISL,ioos:station:DISL:DISL:1,2012-09-01T02:30:00Z,30.2513,-88.0778,6.584,6.51,1111122 
DISL,ioos:station:DISL:DISL:1,2012-09-01T03:00:00Z,30.2513,-88.0778,6.571,6.54,1111122 
DISL,ioos:station:DISL:DISL:1,2012-09-01T03:30:00Z,30.2513,-88.0778,6.559,6.47,1111122 
DISL,ioos:station:DISL:DISL:1,2012-09-01T04:00:00Z,30.2513,-88.0778,6.558,6.24,1111122 
DISL,ioos:station:DISL:DISL:1,2012-09-01T04:30:00Z,30.2513,-88.0778,6.548,6.28,1111122 
DISL,ioos:station:DISL:DISL:1,2012-09-01T05:00:00Z,30.2513,-88.0778,6.601,6.03,1111122 
DISL,ioos:station:DISL:DISL:1,2012-09-01T05:30:00Z,30.2513,-88.0778,6.606,6.17,1111122 
DISL,ioos:station:DISL:DISL:1,2012-09-01T06:00:00Z,30.2513,-88.0778,6.598,6.09,1111122 
DISL,ioos:station:DISL:DISL:1,2012-09-01T06:30:00Z,30.2513,-88.0778,6.577,6.1,1111122 
DISL,ioos:station:DISL:DISL:1,2012-09-01T07:00:00Z,30.2513,-88.0778,6.606,6.33,1111122 
DISL,ioos:station:DISL:DISL:1,2012-09-01T07:30:00Z,30.2513,-88.0778,6.631,6.22,1111122 
DISL,ioos:station:DISL:DISL:1,2012-09-01T08:00:00Z,30.2513,-88.0778,6.622,6.06,1111122 
DISL,ioos:station:DISL:DISL:1,2012-09-01T08:30:00Z,30.2513,-88.0778,6.626,6.02,1111122 
DISL,ioos:station:DISL:DISL:1,2012-09-01T09:00:00Z,30.2513,-88.0778,6.657,5.42,1111122 
DISL,ioos:station:DISL:DISL:1,2012-09-01T09:30:00Z,30.2513,-88.0778,6.624,6.24,1111122 
DISL,ioos:station:DISL:DISL:1,2012-09-01T10:00:00Z,30.2513,-88.0778,6.659,6.48,1111122 
DISL,ioos:station:DISL:DISL:1,2012-09-01T10:30:00Z,30.2513,-88.0778,6.62,6.52,1111122 
DISL,ioos:station:DISL:DISL:1,2012-09-01T11:00:00Z,30.2513,-88.0778,6.645,6.37,1111122 
DISL,ioos:station:DISL:DISL:1,2012-09-01T11:30:00Z,30.2513,-88.0778,6.692,6.26,1111122 
DISL,ioos:station:DISL:DISL:1,2012-09-01T12:00:00Z,30.2513,-88.0778,6.704,6.59,1111122 
DISL,ioos:station:DISL:DISL:1,2012-09-01T12:30:00Z,30.2513,-88.0778,6.73,6.48,1111122 
DISL,ioos:station:DISL:DISL:1,2012-09-01T13:00:00Z,30.2513,-88.0778,6.773,6.06,1111122 
DISL,ioos:station:DISL:DISL:1,2012-09-01T13:30:00Z,30.2513,-88.0778,6.804,6.05,1111122 
DISL,ioos:station:DISL:DISL:1,2012-09-01T14:00:00Z,30.2513,-88.0778,6.832,5.99,1111122 
DISL,ioos:station:DISL:DISL:1,2012-09-01T14:30:00Z,30.2513,-88.0778,6.856,5.99,1111122 
DISL,ioos:station:DISL:DISL:1,2012-09-01T15:00:00Z,30.2513,-88.0778,6.934,6.03,1111122 
DISL,ioos:station:DISL:DISL:1,2012-09-01T15:30:00Z,30.2513,-88.0778,6.94,6.14,1111122 
DISL,ioos:station:DISL:DISL:1,2012-09-01T16:00:00Z,30.2513,-88.0778,6.949,6.08,1111122 
DISL,ioos:station:DISL:DISL:1,2012-09-01T16:30:00Z,30.2513,-88.0778,7.0,5.99,1111122 
DISL,ioos:station:DISL:DISL:1,2012-09-01T17:00:00Z,30.2513,-88.0778,7.04,6.17,1111122 
DISL,ioos:station:DISL:DISL:1,2012-09-01T17:30:00Z,30.2513,-88.0778,7.03,6.17,1111122 
DISL,ioos:station:DISL:DISL:1,2012-09-01T18:00:00Z,30.2513,-88.0778,7.11,6.11,1111122 
DISL,ioos:station:DISL:DISL:1,2012-09-01T18:30:00Z,30.2513,-88.0778,7.13,6.2,1111122 
DISL,ioos:station:DISL:DISL:1,2012-09-01T19:00:00Z,30.2513,-88.0778,7.05,6.43,1111122 
DISL,ioos:station:DISL:DISL:1,2012-09-01T19:30:00Z,30.2513,-88.0778,7.04,6.49,1111122 
DISL,ioos:station:DISL:DISL:1,2012-09-01T20:00:00Z,30.2513,-88.0778,7.03,6.85,1111122 
DISL,ioos:station:DISL:DISL:1,2012-09-01T20:30:00Z,30.2513,-88.0778,6.991,6.97,1111122 
DISL,ioos:station:DISL:DISL:1,2012-09-01T21:00:00Z,30.2513,-88.0778,6.947,7.09,1111122 
DISL,ioos:station:DISL:DISL:1,2012-09-01T21:30:00Z,30.2513,-88.0778,6.892,7.1,1111122 
DISL,ioos:station:DISL:DISL:1,2012-09-01T22:00:00Z,30.2513,-88.0778,6.857,7.1,1111122 
DISL,ioos:station:DISL:DISL:1,2012-09-01T22:30:00Z,30.2513,-88.0778,6.834,7.34,1111122 
DISL,ioos:station:DISL:DISL:1,2012-09-01T23:00:00Z,30.2513,-88.0778,6.828,9.27,1111122 
DISL,ioos:station:DISL:DISL:1,2012-09-01T23:30:00Z,30.2513,-88.0778,6.791,10.3,1111122 
DISL,ioos:station:DISL:DISL:1,2012-09-02T00:00:00Z,30.2513,-88.0778,6.769,9.66,1111122 
DISL,ioos:station:DISL:DISL:1,2012-09-02T00:30:00Z,30.2513,-88.0778,6.746,7.83,1111122 
DISL,ioos:station:DISL:DISL:1,2012-09-02T01:00:00Z,30.2513,-88.0778,6.787,6.78,1111122 
DISL,ioos:station:DISL:DISL:1,2012-09-02T01:30:00Z,30.2513,-88.0778,6.722,6.61,1111122 
DISL,ioos:station:DISL:DISL:1,2012-09-02T02:00:00Z,30.2513,-88.0778,6.724,6.36,1111122 
DISL,ioos:station:DISL:DISL:1,2012-09-02T02:30:00Z,30.2513,-88.0778,6.705,6.09,1111122 
DISL,ioos:station:DISL:DISL:1,2012-09-02T03:00:00Z,30.2513,-88.0778,6.732,5.75,1111122 
DISL,ioos:station:DISL:DISL:1,2012-09-02T03:30:00Z,30.2513,-88.0778,6.751,5.77,1111122 
DISL,ioos:station:DISL:DISL:1,2012-09-02T04:00:00Z,30.2513,-88.0778,6.702,6.65,1111122 
DISL,ioos:station:DISL:DISL:1,2012-09-02T04:30:00Z,30.2513,-88.0778,6.747,6.65,1111122 
DISL,ioos:station:DISL:DISL:1,2012-09-02T05:00:00Z,30.2513,-88.0778,6.751,6.59,1111122 
DISL,ioos:station:DISL:DISL:1,2012-09-02T05:30:00Z,30.2513,-88.0778,6.753,7.28,1111122 
DISL,ioos:station:DISL:DISL:1,2012-09-02T06:00:00Z,30.2513,-88.0778,6.781,6.95,1111122 
DISL,ioos:station:DISL:DISL:1,2012-09-02T06:30:00Z,30.2513,-88.0778,6.781,6.94,1111122 
DISL,ioos:station:DISL:DISL:1,2012-09-02T07:00:00Z,30.2513,-88.0778,6.803,6.85,1111122 
DISL,ioos:station:DISL:DISL:1,2012-09-02T07:30:00Z,30.2513,-88.0778,6.738,6.8,1111122 
DISL,ioos:station:DISL:DISL:1,2012-09-02T08:00:00Z,30.2513,-88.0778,6.688,6.91,1111122 
DISL,ioos:station:DISL:DISL:1,2012-09-02T08:30:00Z,30.2513,-88.0778,6.644,6.75,1111122 
DISL,ioos:station:DISL:DISL:1,2012-09-02T09:00:00Z,30.2513,-88.0778,6.624,6.82,1111122 
DISL,ioos:station:DISL:DISL:1,2012-09-02T09:30:00Z,30.2513,-88.0778,6.669,6.7,1111122 
DISL,ioos:station:DISL:DISL:1,2012-09-02T10:00:00Z,30.2513,-88.0778,6.649,6.81,1111122 
DISL,ioos:station:DISL:DISL:1,2012-09-02T10:30:00Z,30.2513,-88.0778,6.67,6.84,1111122 
DISL,ioos:station:DISL:DISL:1,2012-09-02T11:00:00Z,30.2513,-88.0778,6.649,6.46,1111122 
DISL,ioos:station:DISL:DISL:1,2012-09-02T11:30:00Z,30.2513,-88.0778,6.624,6.22,1111122 
DISL,ioos:station:DISL:DISL:1,2012-09-02T12:00:00Z,30.2513,-88.0778,6.675,6.14,1111122 
DISL,ioos:station:DISL:DISL:1,2012-09-02T12:30:00Z,30.2513,-88.0778,6.687,6.0,1111122 
DISL,ioos:station:DISL:DISL:1,2012-09-02T13:00:00Z,30.2513,-88.0778,6.698,5.73,1111122 
DISL,ioos:station:DISL:DISL:1,2012-09-02T13:30:00Z,30.2513,-88.0778,6.709,5.99,1111122 
DISL,ioos:station:DISL:DISL:1,2012-09-02T14:00:00Z,30.2513,-88.0778,6.719,5.98,1111122 
DISL,ioos:station:DISL:DISL:1,2012-09-02T14:30:00Z,30.2513,-88.0778,6.755,6.32,1111122 
DISL,ioos:station:DISL:DISL:1,2012-09-02T15:00:00Z,30.2513,-88.0778,6.809,6.18,1111122 
DISL,ioos:station:DISL:DISL:1,2012-09-02T15:30:00Z,30.2513,-88.0778,6.744,6.61,1111122 
DISL,ioos:station:DISL:DISL:1,2012-09-02T16:00:00Z,30.2513,-88.0778,6.823,6.82,1111122 
DISL,ioos:station:DISL:DISL:1,2012-09-02T16:30:00Z,30.2513,-88.0778,6.837,7.24,1111122 
DISL,ioos:station:DISL:DISL:1,2012-09-02T17:00:00Z,30.2513,-88.0778,6.848,6.87,1111122 
DISL,ioos:station:DISL:DISL:1,2012-09-02T17:30:00Z,30.2513,-88.0778,6.868,7.18,1111122 
DISL,ioos:station:DISL:DISL:1,2012-09-02T18:00:00Z,30.2513,-88.0778,6.906,7.09,1111122 
DISL,ioos:station:DISL:DISL:1,2012-09-02T18:30:00Z,30.2513,-88.0778,6.928,7.25,1111122 
DISL,ioos:station:DISL:DISL:1,2012-09-02T19:00:00Z,30.2513,-88.0778,6.943,7.48,1111122 
DISL,ioos:station:DISL:DISL:1,2012-09-02T19:30:00Z,30.2513,-88.0778,6.932,7.74,1111122 
DISL,ioos:station:DISL:DISL:1,2012-09-02T20:00:00Z,30.2513,-88.0778,6.956,7.95,1111122 
DISL,ioos:station:DISL:DISL:1,2012-09-02T20:30:00Z,30.2513,-88.0778,6.963,8.06,1111122 
DISL,ioos:station:DISL:DISL:1,2012-09-02T21:00:00Z,30.2513,-88.0778,6.971,8.2,1111122 
DISL,ioos:station:DISL:DISL:1,2012-09-02T21:30:00Z,30.2513,-88.0778,6.933,8.36,1111122 
DISL,ioos:station:DISL:DISL:1,2012-09-02T22:00:00Z,30.2513,-88.0778,6.94,8.09,1111122 
DISL,ioos:station:DISL:DISL:1,2012-09-02T22:30:00Z,30.2513,-88.0778,6.974,8.36,1111122 
DISL,ioos:station:DISL:DISL:1,2012-09-02T23:00:00Z,30.2513,-88.0778,6.952,8.36,1111122 
DISL,ioos:station:DISL:DISL:1,2012-09-02T23:30:00Z,30.2513,-88.0778,6.949,8.27,1111122 
DISL,ioos:station:DISL:DISL:1,2012-09-03T00:00:00Z,30.2513,-88.0778,6.968,8.1,1111122 
DISL,ioos:station:DISL:DISL:1,2012-09-03T00:30:00Z,30.2513,-88.0778,7.0,7.87,1111122 
DISL,ioos:station:DISL:DISL:1,2012-09-03T01:00:00Z,30.2513,-88.0778,7.05,7.99,1111122 
DISL,ioos:station:DISL:DISL:1,2012-09-03T01:30:00Z,30.2513,-88.0778,7.03,8.02,1111122 
DISL,ioos:station:DISL:DISL:1,2012-09-03T02:00:00Z,30.2513,-88.0778,7.0,7.69,1111122 
DISL,ioos:station:DISL:DISL:1,2012-09-03T02:30:00Z,30.2513,-88.0778,7.09,7.3,1111122 
DISL,ioos:station:DISL:DISL:1,2012-09-03T03:00:00Z,30.2513,-88.0778,7.1,7.24,1111122 
DISL,ioos:station:DISL:DISL:1,2012-09-03T03:30:00Z,30.2513,-88.0778,7.08,7.27,1111122 
DISL,ioos:station:DISL:DISL:1,2012-09-03T04:00:00Z,30.2513,-88.0778,7.08,7.07,1111122 
DISL,ioos:station:DISL:DISL:1,2012-09-03T04:30:00Z,30.2513,-88.0778,7.12,7.05,1111122 
DISL,ioos:station:DISL:DISL:1,2012-09-03T05:00:00Z,30.2513,-88.0778,7.1,6.95,1111122 
DISL,ioos:station:DISL:DISL:1,2012-09-03T05:30:00Z,30.2513,-88.0778,7.09,6.9,1111122 
DISL,ioos:station:DISL:DISL:1,2012-09-03T06:00:00Z,30.2513,-88.0778,7.12,6.86,1111122 
DISL,ioos:station:DISL:DISL:1,2012-09-03T06:30:00Z,30.2513,-88.0778,7.1,6.88,1111122 
DISL,ioos:station:DISL:DISL:1,2012-09-03T07:00:00Z,30.2513,-88.0778,7.06,6.87,1111122 
DISL,ioos:station:DISL:DISL:1,2012-09-03T07:30:00Z,30.2513,-88.0778,7.06,6.8,1111122 
DISL,ioos:station:DISL:DISL:1,2012-09-03T08:00:00Z,30.2513,-88.0778,7.05,6.6,1111122 
DISL,ioos:station:DISL:DISL:1,2012-09-03T08:30:00Z,30.2513,-88.0778,6.999,6.65,1111122 
DISL,ioos:station:DISL:DISL:1,2012-09-03T09:00:00Z,30.2513,-88.0778,6.954,6.44,1111122 
DISL,ioos:station:DISL:DISL:1,2012-09-03T09:30:00Z,30.2513,-88.0778,6.948,6.31,1111122 
DISL,ioos:station:DISL:DISL:1,2012-09-03T10:00:00Z,30.2513,-88.0778,6.907,6.36,1111122 
DISL,ioos:station:DISL:DISL:1,2012-09-03T10:30:00Z,30.2513,-88.0778,6.869,6.33,1111122 
DISL,ioos:station:DISL:DISL:1,2012-09-03T11:00:00Z,30.2513,-88.0778,6.833,6.12,1111122 
DISL,ioos:station:DISL:DISL:1,2012-09-03T11:30:00Z,30.2513,-88.0778,6.822,6.18,1111122 
DISL,ioos:station:DISL:DISL:1,2012-09-03T12:00:00Z,30.2513,-88.0778,6.832,5.98,1111122 
DISL,ioos:station:DISL:DISL:1,2012-09-03T12:30:00Z,30.2513,-88.0778,6.845,5.85,1111122 
DISL,ioos:station:DISL:DISL:1,2012-09-03T13:00:00Z,30.2513,-88.0778,6.815,6.0,1111122 
DISL,ioos:station:DISL:DISL:1,2012-09-03T13:30:00Z,30.2513,-88.0778,6.837,5.84,1111122 
DISL,ioos:station:DISL:DISL:1,2012-09-03T14:00:00Z,30.2513,-88.0778,6.858,5.63,1111122 
DISL,ioos:station:DISL:DISL:1,2012-09-03T14:30:00Z,30.2513,-88.0778,6.838,5.53,1111122 
DISL,ioos:station:DISL:DISL:1,2012-09-03T15:00:00Z,30.2513,-88.0778,6.83,5.64,1111122 
DISL,ioos:station:DISL:DISL:1,2012-09-03T15:30:00Z,30.2513,-88.0778,6.787,5.75,1111122 
DISL,ioos:station:DISL:DISL:1,2012-09-03T16:00:00Z,30.2513,-88.0778,6.766,5.74,1111122 
DISL,ioos:station:DISL:DISL:1,2012-09-03T16:30:00Z,30.2513,-88.0778,6.802,6.12,1111122 
DISL,ioos:station:DISL:DISL:1,2012-09-03T17:00:00Z,30.2513,-88.0778,6.821,6.12,1111122 
DISL,ioos:station:DISL:DISL:1,2012-09-03T17:30:00Z,30.2513,-88.0778,6.819,6.31,1111122 
DISL,ioos:station:DISL:DISL:1,2012-09-03T18:00:00Z,30.2513,-88.0778,6.815,6.41,1111122 
DISL,ioos:station:DISL:DISL:1,2012-09-03T18:30:00Z,30.2513,-88.0778,6.884,6.13,1111122 
DISL,ioos:station:DISL:DISL:1,2012-09-03T19:00:00Z,30.2513,-88.0778,6.902,6.42,1111122 
DISL,ioos:station:DISL:DISL:1,2012-09-03T19:30:00Z,30.2513,-88.0778,6.844,6.68,1111122 
DISL,ioos:station:DISL:DISL:1,2012-09-03T20:00:00Z,30.2513,-88.0778,6.821,7.0,1111122 
DISL,ioos:station:DISL:DISL:1,2012-09-03T20:30:00Z,30.2513,-88.0778,6.846,7.01,1111122 
DISL,ioos:station:DISL:DISL:1,2012-09-03T21:00:00Z,30.2513,-88.0778,6.893,7.07,1111122 
DISL,ioos:station:DISL:DISL:1,2012-09-03T21:30:00Z,30.2513,-88.0778,6.849,7.13,1111122 
DISL,ioos:station:DISL:DISL:1,2012-09-03T22:00:00Z,30.2513,-88.0778,6.891,7.15,1111122 
DISL,ioos:station:DISL:DISL:1,2012-09-03T22:30:00Z,30.2513,-88.0778,6.843,7.07,1111122 
DISL,ioos:station:DISL:DISL:1,2012-09-03T23:00:00Z,30.2513,-88.0778,6.865,6.98,1111122 
DISL,ioos:station:DISL:DISL:1,2012-09-03T23:30:00Z,30.2513,-88.0778,6.833,7.0,1111122 
DISL,ioos:station:DISL:DISL:1,2012-09-04T00:00:00Z,30.2513,-88.0778,6.888,6.91,1111122 
DISL,ioos:station:DISL:DISL:1,2012-09-04T00:30:00Z,30.2513,-88.0778,6.899,6.73,1111122 
DISL,ioos:station:DISL:DISL:1,2012-09-04T01:00:00Z,30.2513,-88.0778,6.929,6.62,1111122 
DISL,ioos:station:DISL:DISL:1,2012-09-04T01:30:00Z,30.2513,-88.0778,6.942,6.3,1111122 
DISL,ioos:station:DISL:DISL:1,2012-09-04T02:00:00Z,30.2513,-88.0778,6.972,6.39,1111122 
DISL,ioos:station:DISL:DISL:1,2012-09-04T02:30:00Z,30.2513,-88.0778,6.966,6.76,1111122 
DISL,ioos:station:DISL:DISL:1,2012-09-04T03:00:00Z,30.2513,-88.0778,7.0,6.52,1111122 
DISL,ioos:station:DISL:DISL:1,2012-09-04T03:30:00Z,30.2513,-88.0778,7.07,6.51,1111122 
DISL,ioos:station:DISL:DISL:1,2012-09-04T04:00:00Z,30.2513,-88.0778,7.03,6.47,1111122 
DISL,ioos:station:DISL:DISL:1,2012-09-04T04:30:00Z,30.2513,-88.0778,7.08,6.27,1111122 
DISL,ioos:station:DISL:DISL:1,2012-09-04T05:00:00Z,30.2513,-88.0778,6.958,6.34,1111122 
DISL,ioos:station:DISL:DISL:1,2012-09-04T05:30:00Z,30.2513,-88.0778,7.0,6.25,1111122 
DISL,ioos:station:DISL:DISL:1,2012-09-04T06:00:00Z,30.2513,-88.0778,7.05,6.13,1111122 
DISL,ioos:station:DISL:DISL:1,2012-09-04T06:30:00Z,30.2513,-88.0778,7.1,6.28,1111122 
DISL,ioos:station:DISL:DISL:1,2012-09-04T07:00:00Z,30.2513,-88.0778,7.09,6.26,1111122 
DISL,ioos:station:DISL:DISL:1,2012-09-04T07:30:00Z,30.2513,-88.0778,7.13,6.22,1111122 
DISL,ioos:station:DISL:DISL:1,2012-09-04T08:00:00Z,30.2513,-88.0778,7.08,6.3,1111122 
DISL,ioos:station:DISL:DISL:1,2012-09-04T08:30:00Z,30.2513,-88.0778,7.05,6.23,1111122 
DISL,ioos:station:DISL:DISL:1,2012-09-04T09:00:00Z,30.2513,-88.0778,7.01,6.05,1111122 
DISL,ioos:station:DISL:DISL:1,2012-09-04T09:30:00Z,30.2513,-88.0778,6.966,6.21,1111122 
DISL,ioos:station:DISL:DISL:1,2012-09-04T10:00:00Z,30.2513,-88.0778,6.953,6.13,1111122 
DISL,ioos:station:DISL:DISL:1,2012-09-04T10:30:00Z,30.2513,-88.0778,6.928,6.08,1111122 
DISL,ioos:station:DISL:DISL:1,2012-09-04T11:00:00Z,30.2513,-88.0778,6.844,5.85,1111122 
DISL,ioos:station:DISL:DISL:1,2012-09-04T11:30:00Z,30.2513,-88.0778,6.792,5.94,1111122 
DISL,ioos:station:DISL:DISL:1,2012-09-04T12:00:00Z,30.2513,-88.0778,6.789,5.92,1111122 
DISL,ioos:station:DISL:DISL:1,2012-09-04T12:30:00Z,30.2513,-88.0778,6.744,5.61,1111122 
DISL,ioos:station:DISL:DISL:1,2012-09-04T13:00:00Z,30.2513,-88.0778,6.735,5.7,1111122 
DISL,ioos:station:DISL:DISL:1,2012-09-04T13:30:00Z,30.2513,-88.0778,6.694,5.75,1111122 
DISL,ioos:station:DISL:DISL:1,2012-09-04T14:00:00Z,30.2513,-88.0778,6.633,5.86,1111122 
DISL,ioos:station:DISL:DISL:1,2012-09-04T14:30:00Z,30.2513,-88.0778,6.637,5.87,1111122 
DISL,ioos:station:DISL:DISL:1,2012-09-04T15:00:00Z,30.2513,-88.0778,6.636,5.62,1111122 
DISL,ioos:station:DISL:DISL:1,2012-09-04T15:30:00Z,30.2513,-88.0778,6.633,6.03,1111122 
DISL,ioos:station:DISL:DISL:1,2012-09-04T16:00:00Z,30.2513,-88.0778,6.593,6.1,1111122 
DISL,ioos:station:DISL:DISL:1,2012-09-04T16:30:00Z,30.2513,-88.0778,6.638,5.97,1111122 
DISL,ioos:station:DISL:DISL:1,2012-09-04T17:00:00Z,30.2513,-88.0778,6.615,6.29,1111122 
DISL,ioos:station:DISL:DISL:1,2012-09-04T17:30:00Z,30.2513,-88.0778,6.623,6.06,1111122 
DISL,ioos:station:DISL:DISL:1,2012-09-04T18:00:00Z,30.2513,-88.0778,6.611,6.05,1111122 
DISL,ioos:station:DISL:DISL:1,2012-09-04T18:30:00Z,30.2513,-88.0778,6.63,6.27,1111122 
DISL,ioos:station:DISL:DISL:1,2012-09-04T19:00:00Z,30.2513,-88.0778,6.69,6.58,1111122 
DISL,ioos:station:DISL:DISL:1,2012-09-04T19:30:00Z,30.2513,-88.0778,6.743,6.63,1111122 
DISL,ioos:station:DISL:DISL:1,2012-09-04T20:00:00Z,30.2513,-88.0778,6.702,6.51,1111122 
DISL,ioos:station:DISL:DISL:1,2012-09-04T20:30:00Z,30.2513,-88.0778,6.746,6.55,1111122 
DISL,ioos:station:DISL:DISL:1,2012-09-04T21:00:00Z,30.2513,-88.0778,6.75,6.6,1111122 
DISL,ioos:station:DISL:DISL:1,2012-09-04T21:30:00Z,30.2513,-88.0778,6.804,6.69,1111122 
DISL,ioos:station:DISL:DISL:1,2012-09-04T22:00:00Z,30.2513,-88.0778,6.817,6.69,1111122 
DISL,ioos:station:DISL:DISL:1,2012-09-04T22:30:00Z,30.2513,-88.0778,6.841,6.8,1111122 
DISL,ioos:station:DISL:DISL:1,2012-09-04T23:00:00Z,30.2513,-88.0778,6.891,7.16,1111122 
DISL,ioos:station:DISL:DISL:1,2012-09-04T23:30:00Z,30.2513,-88.0778,6.951,6.98,1111122 
DISL,ioos:station:DISL:DISL:1,2012-09-05T00:00:00Z,30.2513,-88.0778,7.02,6.77,1111122 
DISL,ioos:station:DISL:DISL:1,2012-09-05T00:30:00Z,30.2513,-88.0778,7.01,7.04,1111122 
DISL,ioos:station:DISL:DISL:1,2012-09-05T01:00:00Z,30.2513,-88.0778,7.01,7.01,1111122 
DISL,ioos:station:DISL:DISL:1,2012-09-05T01:30:00Z,30.2513,-88.0778,7.1,6.67,1111122 
DISL,ioos:station:DISL:DISL:1,2012-09-05T02:00:00Z,30.2513,-88.0778,7.13,6.76,1111122 
DISL,ioos:station:DISL:DISL:1,2012-09-05T02:30:00Z,30.2513,-88.0778,6.941,6.53,1111122 
DISL,ioos:station:DISL:DISL:1,2012-09-05T03:00:00Z,30.2513,-88.0778,7.05,6.55,1111122 
DISL,ioos:station:DISL:DISL:1,2012-09-05T03:30:00Z,30.2513,-88.0778,7.08,6.34,1111122 
DISL,ioos:station:DISL:DISL:1,2012-09-05T04:00:00Z,30.2513,-88.0778,7.17,6.4,1111122 
DISL,ioos:station:DISL:DISL:1,2012-09-05T04:30:00Z,30.2513,-88.0778,7.26,6.31,1111122 
DISL,ioos:station:DISL:DISL:1,2012-09-05T05:00:00Z,30.2513,-88.0778,7.38,5.95,1111122 
DISL,ioos:station:DISL:DISL:1,2012-09-05T05:30:00Z,30.2513,-88.0778,7.34,5.32,1111122 
DISL,ioos:station:DISL:DISL:1,2012-09-05T06:00:00Z,30.2513,-88.0778,7.32,5.79,1111122 
DISL,ioos:station:DISL:DISL:1,2012-09-05T06:30:00Z,30.2513,-88.0778,7.36,6.1,1111122 
DISL,ioos:station:DISL:DISL:1,2012-09-05T07:00:00Z,30.2513,-88.0778,7.47,5.88,1111122 
DISL,ioos:station:DISL:DISL:1,2012-09-05T07:30:00Z,30.2513,-88.0778,7.39,6.18,1111122 
DISL,ioos:station:DISL:DISL:1,2012-09-05T08:00:00Z,30.2513,-88.0778,7.09,6.08,1111122 
DISL,ioos:station:DISL:DISL:1,2012-09-05T08:30:00Z,30.2513,-88.0778,7.25,5.95,1111122 
DISL,ioos:station:DISL:DISL:1,2012-09-05T09:00:00Z,30.2513,-88.0778,7.21,5.97,1111122 
DISL,ioos:station:DISL:DISL:1,2012-09-05T09:30:00Z,30.2513,-88.0778,7.16,5.76,1111122 
DISL,ioos:station:DISL:DISL:1,2012-09-05T10:00:00Z,30.2513,-88.0778,7.1,5.9,1111122 
DISL,ioos:station:DISL:DISL:1,2012-09-05T10:30:00Z,30.2513,-88.0778,7.0,5.98,1111122 
DISL,ioos:station:DISL:DISL:1,2012-09-05T11:00:00Z,30.2513,-88.0778,6.95,5.91,1111122 
DISL,ioos:station:DISL:DISL:1,2012-09-05T11:30:00Z,30.2513,-88.0778,7.1,5.93,1111122 
DISL,ioos:station:DISL:DISL:1,2012-09-05T12:00:00Z,30.2513,-88.0778,7.08,6.03,1111122 
DISL,ioos:station:DISL:DISL:1,2012-09-05T12:30:00Z,30.2513,-88.0778,7.01,6.05,1111122 
DISL,ioos:station:DISL:DISL:1,2012-09-05T13:00:00Z,30.2513,-88.0778,6.963,6.04,1111122 
DISL,ioos:station:DISL:DISL:1,2012-09-05T13:30:00Z,30.2513,-88.0778,6.864,5.99,1111122 
DISL,ioos:station:DISL:DISL:1,2012-09-05T14:00:00Z,30.2513,-88.0778,6.814,5.61,1111122 
DISL,ioos:station:DISL:DISL:1,2012-09-05T14:30:00Z,30.2513,-88.0778,6.824,5.95,1111122 
DISL,ioos:station:DISL:DISL:1,2012-09-05T15:00:00Z,30.2513,-88.0778,6.781,5.89,1111122 
DISL,ioos:station:DISL:DISL:1,2012-09-05T15:30:00Z,30.2513,-88.0778,6.67,6.09,1111122 
DISL,ioos:station:DISL:DISL:1,2012-09-05T16:00:00Z,30.2513,-88.0778,6.6,5.83,1111122 
DISL,ioos:station:DISL:DISL:1,2012-09-05T16:30:00Z,30.2513,-88.0778,6.537,6.38,1111122 
DISL,ioos:station:DISL:DISL:1,2012-09-05T17:00:00Z,30.2513,-88.0778,6.449,6.57,1111122 
DISL,ioos:station:DISL:DISL:1,2012-09-05T17:30:00Z,30.2513,-88.0778,6.456,6.7,1111122 
DISL,ioos:station:DISL:DISL:1,2012-09-05T18:00:00Z,30.2513,-88.0778,6.403,6.74,1111122 
DISL,ioos:station:DISL:DISL:1,2012-09-05T18:30:00Z,30.2513,-88.0778,6.174,6.87,1111122 
DISL,ioos:station:DISL:DISL:1,2012-09-05T19:00:00Z,30.2513,-88.0778,6.376,6.92,1111122 
DISL,ioos:station:DISL:DISL:1,2012-09-05T19:30:00Z,30.2513,-88.0778,6.305,7.14,1111122 
DISL,ioos:station:DISL:DISL:1,2012-09-05T20:00:00Z,30.2513,-88.0778,6.232,6.8,1111122 
DISL,ioos:station:DISL:DISL:1,2012-09-05T20:30:00Z,30.2513,-88.0778,6.506,6.88,1111122 
DISL,ioos:station:DISL:DISL:1,2012-09-05T21:00:00Z,30.2513,-88.0778,6.405,6.99,1111122 
DISL,ioos:station:DISL:DISL:1,2012-09-05T21:30:00Z,30.2513,-88.0778,6.627,7.04,1111122 
DISL,ioos:station:DISL:DISL:1,2012-09-05T22:00:00Z,30.2513,-88.0778,6.638,7.23,1111122 
DISL,ioos:station:DISL:DISL:1,2012-09-05T22:30:00Z,30.2513,-88.0778,6.516,7.25,1111122 
DISL,ioos:station:DISL:DISL:1,2012-09-05T23:00:00Z,30.2513,-88.0778,6.546,7.28,1111122 
DISL,ioos:station:DISL:DISL:1,2012-09-05T23:30:00Z,30.2513,-88.0778,6.439,6.96,1111122 
DISL,ioos:station:DISL:DISL:1,2012-09-06T00:00:00Z,30.2513,-88.0778,6.663,5.52,1111122 
DISL,ioos:station:DISL:DISL:1,2012-09-06T00:30:00Z,30.2513,-88.0778,6.689,4.89,1111122 
DISL,ioos:station:DISL:DISL:1,2012-09-06T01:00:00Z,30.2513,-88.0778,6.741,5.15,1111122 
DISL,ioos:station:DISL:DISL:1,2012-09-06T01:30:00Z,30.2513,-88.0778,6.878,4.93,1111122 
DISL,ioos:station:DISL:DISL:1,2012-09-06T02:00:00Z,30.2513,-88.0778,6.869,4.79,1111122 
DISL,ioos:station:DISL:DISL:1,2012-09-06T02:30:00Z,30.2513,-88.0778,6.985,5.15,1111122 
DISL,ioos:station:DISL:DISL:1,2012-09-06T03:00:00Z,30.2513,-88.0778,7.02,5.03,1111122 
DISL,ioos:station:DISL:DISL:1,2012-09-06T03:30:00Z,30.2513,-88.0778,7.15,4.78,1111122 
DISL,ioos:station:DISL:DISL:1,2012-09-06T04:00:00Z,30.2513,-88.0778,7.27,4.92,1111122 
DISL,ioos:station:DISL:DISL:1,2012-09-06T04:30:00Z,30.2513,-88.0778,7.31,5.09,1111122 
DISL,ioos:station:DISL:DISL:1,2012-09-06T05:00:00Z,30.2513,-88.0778,7.35,4.96,1111122 
DISL,ioos:station:DISL:DISL:1,2012-09-06T05:30:00Z,30.2513,-88.0778,7.43,4.96,1111122 
DISL,ioos:station:DISL:DISL:1,2012-09-06T06:00:00Z,30.2513,-88.0778,7.49,4.76,1111122 
DISL,ioos:station:DISL:DISL:1,2012-09-06T06:30:00Z,30.2513,-88.0778,7.52,4.82,1111122 
DISL,ioos:station:DISL:DISL:1,2012-09-06T07:00:00Z,30.2513,-88.0778,7.51,4.54,1111122 
DISL,ioos:station:DISL:DISL:1,2012-09-06T07:30:00Z,30.2513,-88.0778,7.58,4.4,1111122 
DISL,ioos:station:DISL:DISL:1,2012-09-06T08:00:00Z,30.2513,-88.0778,7.55,4.37,1111122 
DISL,ioos:station:DISL:DISL:1,2012-09-06T08:30:00Z,30.2513,-88.0778,7.52,4.64,1111122 
DISL,ioos:station:DISL:DISL:1,2012-09-06T09:00:00Z,30.2513,-88.0778,7.59,4.97,1111122 
DISL,ioos:station:DISL:DISL:1,2012-09-06T09:30:00Z,30.2513,-88.0778,7.55,5.67,1111122 
DISL,ioos:station:DISL:DISL:1,2012-09-06T10:00:00Z,30.2513,-88.0778,7.49,5.98,1111122 
DISL,ioos:station:DISL:DISL:1,2012-09-06T10:30:00Z,30.2513,-88.0778,7.46,5.95,1111122 
DISL,ioos:station:DISL:DISL:1,2012-09-06T11:00:00Z,30.2513,-88.0778,7.33,5.99,1111122 
DISL,ioos:station:DISL:DISL:1,2012-09-06T11:30:00Z,30.2513,-88.0778,7.4,5.78,1111122 
DISL,ioos:station:DISL:DISL:1,2012-09-06T12:00:00Z,30.2513,-88.0778,7.24,6.15,1111122 
DISL,ioos:station:DISL:DISL:1,2012-09-06T12:30:00Z,30.2513,-88.0778,7.18,6.37,1111122 
DISL,ioos:station:DISL:DISL:1,2012-09-06T13:00:00Z,30.2513,-88.0778,7.07,6.41,1111122 
DISL,ioos:station:DISL:DISL:1,2012-09-06T13:30:00Z,30.2513,-88.0778,7.0,6.44,1111122 
DISL,ioos:station:DISL:DISL:1,2012-09-06T14:00:00Z,30.2513,-88.0778,6.968,6.69,1111122 
DISL,ioos:station:DISL:DISL:1,2012-09-06T14:30:00Z,30.2513,-88.0778,6.916,6.85,1111122 
DISL,ioos:station:DISL:DISL:1,2012-09-06T15:00:00Z,30.2513,-88.0778,6.834,6.86,1111122 
DISL,ioos:station:DISL:DISL:1,2012-09-06T15:30:00Z,30.2513,-88.0778,6.785,7.03,1111122 
DISL,ioos:station:DISL:DISL:1,2012-09-06T16:00:00Z,30.2513,-88.0778,6.75,7.07,1111122 